DFKAM EHBK-EDNY

Flight info

Callsign DFKAM
Flight time 1h 20m
Altitude 23000
Route LNO N852 DIK/N0273F250 N852 GTQ/N0270F130 R7 LUPEN Y126 DENEL Y711 NATOR T732 ARFAS
Aircraft PC12/L-SDFGRWY/S

Departure

Time 2026-05-04 12:06
Airport Maastricht Aachen Airport (EHBK)

Arrival

Time 2026-05-04 13:26
Airport Bodensee Airport Friedrichshafen (EDNY)
Time Latitude Longitude Altitude Speed Heading
2026-05-04 11:41 50.91174 5.76598 378 ft 0 kts 160°
2026-05-04 12:00 50.91170 5.76604 378 ft 1 kts 115°
2026-05-04 12:00 50.91171 5.76615 378 ft 2 kts 57°
2026-05-04 12:00 50.91204 5.76645 378 ft 9 kts 28°
2026-05-04 12:01 50.91258 5.76753 378 ft 15 kts 51°
2026-05-04 12:01 50.91339 5.76861 378 ft 15 kts 32°
2026-05-04 12:02 50.91859 5.77390 378 ft 15 kts 32°
2026-05-04 12:03 50.91947 5.77479 378 ft 15 kts 32°
2026-05-04 12:03 50.92032 5.77566 378 ft 15 kts 32°
2026-05-04 12:03 50.92108 5.77642 378 ft 12 kts 33°
2026-05-04 12:03 50.92144 5.77697 378 ft 7 kts 71°
2026-05-04 12:04 50.92127 5.77769 378 ft 8 kts 127°
2026-05-04 12:04 50.92094 5.77842 378 ft 11 kts 123°
2026-05-04 12:04 50.92044 5.77891 378 ft 0 kts 214°
2026-05-04 12:05 50.92043 5.77890 378 ft 4 kts 214°
2026-05-04 12:05 50.91885 5.77729 377 ft 51 kts 213°
2026-05-04 12:05 50.91474 5.77305 382 ft 85 kts 214°
2026-05-04 12:05 50.90933 5.76749 508 ft 98 kts 218°
2026-05-04 12:06 50.90350 5.76095 760 ft 106 kts 220°
2026-05-04 12:06 50.89751 5.75369 1017 ft 116 kts 212°
2026-05-04 12:06 50.89000 5.74727 1198 ft 133 kts 211°
2026-05-04 12:06 50.88150 5.73928 1393 ft 149 kts 211°
2026-05-04 12:07 50.87099 5.73646 1658 ft 157 kts 181°
2026-05-04 12:07 50.86011 5.73637 1975 ft 155 kts 184°
2026-05-04 12:07 50.84934 5.73559 2287 ft 155 kts 184°
2026-05-04 12:07 50.83859 5.73457 2597 ft 155 kts 184°
2026-05-04 12:08 50.82783 5.73353 2908 ft 155 kts 184°
2026-05-04 12:08 50.81702 5.73248 3224 ft 155 kts 185°
2026-05-04 12:08 50.80618 5.73143 3536 ft 156 kts 184°
2026-05-04 12:08 50.79531 5.73039 3826 ft 157 kts 184°
2026-05-04 12:09 50.78435 5.72933 4134 ft 158 kts 184°
2026-05-04 12:09 50.77335 5.72828 4456 ft 159 kts 184°
2026-05-04 12:09 50.76230 5.72721 4781 ft 159 kts 184°
2026-05-04 12:09 50.75121 5.72615 5099 ft 160 kts 184°
2026-05-04 12:10 50.74023 5.72510 5395 ft 160 kts 184°
2026-05-04 12:10 50.72909 5.72403 5694 ft 161 kts 184°
2026-05-04 12:10 50.71792 5.72295 6004 ft 161 kts 184°
2026-05-04 12:10 50.70674 5.72188 6313 ft 161 kts 184°
2026-05-04 12:11 50.69552 5.72081 6595 ft 162 kts 184°
2026-05-04 12:11 50.68425 5.71973 6898 ft 162 kts 184°
2026-05-04 12:11 50.67301 5.71865 7191 ft 162 kts 184°
2026-05-04 12:11 50.66172 5.71757 7488 ft 163 kts 184°
2026-05-04 12:12 50.65033 5.71648 7793 ft 165 kts 184°
2026-05-04 12:12 50.63886 5.71539 8111 ft 166 kts 185°
2026-05-04 12:12 50.62732 5.71428 8433 ft 167 kts 184°
2026-05-04 12:12 50.61571 5.71318 8766 ft 167 kts 185°
2026-05-04 12:13 50.60411 5.71207 9101 ft 167 kts 185°
2026-05-04 12:14 50.52465 5.74628 11335 ft 175 kts 161°
2026-05-04 12:15 50.51319 5.75300 11651 ft 176 kts 161°
2026-05-04 12:15 50.50170 5.75973 11973 ft 176 kts 161°
2026-05-04 12:15 50.49025 5.76645 12302 ft 176 kts 161°
2026-05-04 12:15 50.47879 5.77316 12618 ft 176 kts 161°
2026-05-04 12:16 50.46728 5.77989 12941 ft 176 kts 161°
2026-05-04 12:16 50.45583 5.78659 13266 ft 175 kts 161°
2026-05-04 12:16 50.44437 5.79329 13585 ft 176 kts 161°
2026-05-04 12:16 50.43293 5.79997 13900 ft 175 kts 161°
2026-05-04 12:17 50.42150 5.80665 14185 ft 175 kts 161°
2026-05-04 12:17 50.41007 5.81333 14472 ft 176 kts 161°
2026-05-04 12:17 50.39859 5.82002 14775 ft 176 kts 161°
2026-05-04 12:17 50.38711 5.82672 15058 ft 176 kts 161°
2026-05-04 12:18 50.37565 5.83340 15347 ft 176 kts 161°
2026-05-04 12:18 50.36437 5.83997 15649 ft 175 kts 162°
2026-05-04 12:18 50.35296 5.84661 15929 ft 175 kts 162°
2026-05-04 12:18 50.34155 5.85326 16222 ft 174 kts 162°
2026-05-04 12:19 50.33021 5.85986 16500 ft 174 kts 162°
2026-05-04 12:19 50.31888 5.86644 16789 ft 173 kts 162°
2026-05-04 12:19 50.30758 5.87301 17087 ft 173 kts 162°
2026-05-04 12:19 50.29630 5.87956 17393 ft 173 kts 163°
2026-05-04 12:20 50.28503 5.88610 17703 ft 172 kts 163°
2026-05-04 12:20 50.27381 5.89261 17993 ft 172 kts 163°
2026-05-04 12:20 50.26262 5.89910 18297 ft 171 kts 163°
2026-05-04 12:20 50.25149 5.90555 18556 ft 170 kts 164°
2026-05-04 12:21 50.24054 5.91190 18807 ft 170 kts 164°
2026-05-04 12:21 50.22947 5.91831 19060 ft 169 kts 164°
2026-05-04 12:21 50.21844 5.92470 19330 ft 169 kts 164°
2026-05-04 12:21 50.20742 5.93107 19608 ft 169 kts 165°
2026-05-04 12:22 50.19642 5.93743 19888 ft 169 kts 165°
2026-05-04 12:22 50.18541 5.94379 20187 ft 169 kts 165°
2026-05-04 12:22 50.17442 5.95014 20472 ft 169 kts 165°
2026-05-04 12:22 50.16340 5.95651 20730 ft 168 kts 165°
2026-05-04 12:23 50.15239 5.96286 20968 ft 169 kts 165°
2026-05-04 12:23 50.14129 5.96926 21222 ft 170 kts 165°
2026-05-04 12:23 50.13016 5.97568 21485 ft 171 kts 166°
2026-05-04 12:23 50.11900 5.98211 21735 ft 171 kts 166°
2026-05-04 12:24 50.10781 5.98855 21996 ft 172 kts 166°
2026-05-04 12:24 50.09660 5.99501 22267 ft 172 kts 166°
2026-05-04 12:24 50.08538 6.00146 22537 ft 172 kts 166°
2026-05-04 12:24 50.07432 6.00783 22799 ft 172 kts 166°
2026-05-04 12:25 50.06308 6.01429 23073 ft 172 kts 166°
2026-05-04 12:25 50.05183 6.02076 23379 ft 172 kts 166°
2026-05-04 12:25 50.04059 6.02722 23675 ft 172 kts 166°
2026-05-04 12:25 50.02936 6.03366 23926 ft 172 kts 166°
2026-05-04 12:26 50.01814 6.04010 24173 ft 172 kts 166°
2026-05-04 12:26 50.00692 6.04654 24399 ft 172 kts 166°
2026-05-04 12:26 49.99571 6.05296 24634 ft 172 kts 166°
2026-05-04 12:26 49.98452 6.05938 24861 ft 172 kts 166°
2026-05-04 12:27 49.97332 6.06579 25092 ft 171 kts 166°
2026-05-04 12:27 49.96212 6.07220 25329 ft 171 kts 166°
2026-05-04 12:27 49.95093 6.07861 25558 ft 172 kts 167°
2026-05-04 12:27 49.93972 6.08502 25789 ft 172 kts 167°
2026-05-04 12:28 49.92806 6.09162 25706 ft 188 kts 167°
2026-05-04 12:28 49.91518 6.09890 25515 ft 205 kts 166°
2026-05-04 12:28 49.90145 6.10675 25328 ft 216 kts 165°
2026-05-04 12:28 49.88705 6.11501 25137 ft 224 kts 165°
2026-05-04 12:29 49.87206 6.12355 24924 ft 237 kts 165°
2026-05-04 12:29 49.85619 6.13327 24738 ft 252 kts 159°
2026-05-04 12:29 49.83991 6.14472 24553 ft 260 kts 161°
2026-05-04 12:29 49.82325 6.15576 24368 ft 261 kts 161°
2026-05-04 12:30 49.80656 6.16694 24178 ft 262 kts 161°
2026-05-04 12:30 49.78988 6.17833 23990 ft 262 kts 160°
2026-05-04 12:30 49.77318 6.18972 23809 ft 263 kts 160°
2026-05-04 12:30 49.75662 6.20095 23628 ft 264 kts 160°
2026-05-04 12:31 49.73976 6.21236 23416 ft 264 kts 160°
2026-05-04 12:31 49.72292 6.22377 23198 ft 264 kts 160°
2026-05-04 12:31 49.70609 6.23517 23035 ft 261 kts 160°
2026-05-04 12:31 49.68974 6.24627 23032 ft 253 kts 160°
2026-05-04 12:32 49.67380 6.25705 23030 ft 247 kts 161°
2026-05-04 12:32 49.64283 6.27793 23029 ft 240 kts 161°
2026-05-04 12:32 49.62754 6.28815 23030 ft 239 kts 161°
2026-05-04 12:33 49.61209 6.29806 23032 ft 242 kts 162°
2026-05-04 12:33 49.59648 6.30803 23024 ft 243 kts 162°
2026-05-04 12:33 49.58612 6.31472 23024 ft 244 kts 162°
2026-05-04 12:33 49.57040 6.32489 23021 ft 245 kts 162°
2026-05-04 12:34 49.55466 6.33506 23028 ft 246 kts 162°
2026-05-04 12:34 49.53881 6.34527 23029 ft 248 kts 162°
2026-05-04 12:34 49.52282 6.35556 23028 ft 249 kts 162°
2026-05-04 12:34 49.50676 6.36590 23028 ft 251 kts 162°
2026-05-04 12:35 49.49065 6.37608 23019 ft 249 kts 164°
2026-05-04 12:35 49.47477 6.37559 22908 ft 238 kts 218°
2026-05-04 12:35 49.46182 6.36012 22964 ft 230 kts 206°
2026-05-04 12:35 49.44656 6.35363 23031 ft 231 kts 185°
2026-05-04 12:36 49.43056 6.35711 23033 ft 237 kts 164°
2026-05-04 12:36 49.41622 6.37040 23032 ft 247 kts 143°
2026-05-04 12:36 49.40577 6.39184 23029 ft 258 kts 122°
2026-05-04 12:36 49.40083 6.41879 23027 ft 269 kts 101°
2026-05-04 12:37 49.39932 6.44724 23018 ft 262 kts 113°
2026-05-04 12:37 49.38949 6.46912 23032 ft 244 kts 149°
2026-05-04 12:37 49.37422 6.47743 23029 ft 235 kts 175°
2026-05-04 12:37 49.35795 6.48030 23027 ft 235 kts 177°
2026-05-04 12:38 49.34163 6.48369 23020 ft 238 kts 172°
2026-05-04 12:38 49.32563 6.49066 23020 ft 241 kts 163°
2026-05-04 12:38 49.31021 6.50109 23022 ft 243 kts 159°
2026-05-04 12:38 49.29493 6.51213 23019 ft 243 kts 160°
2026-05-04 12:39 49.27945 6.52256 23014 ft 243 kts 161°
2026-05-04 12:39 49.26394 6.53270 23014 ft 242 kts 161°
2026-05-04 12:39 49.24844 6.54296 23018 ft 242 kts 161°
2026-05-04 12:39 49.23297 6.55328 23018 ft 243 kts 161°
2026-05-04 12:40 49.21750 6.56358 23021 ft 242 kts 161°
2026-05-04 12:40 49.20200 6.57387 23024 ft 243 kts 161°
2026-05-04 12:40 49.18651 6.58414 23026 ft 243 kts 161°
2026-05-04 12:40 49.17122 6.59428 23028 ft 243 kts 161°
2026-05-04 12:41 49.15570 6.60457 23022 ft 243 kts 161°
2026-05-04 12:41 49.14016 6.61486 23024 ft 245 kts 161°
2026-05-04 12:41 49.12446 6.62524 23025 ft 246 kts 161°
2026-05-04 12:41 49.10873 6.63564 23005 ft 247 kts 162°
2026-05-04 12:42 49.09299 6.64604 23010 ft 246 kts 162°
2026-05-04 12:42 49.07729 6.65641 23010 ft 246 kts 162°
2026-05-04 12:42 49.06154 6.66680 23014 ft 246 kts 162°
2026-05-04 12:42 49.04584 6.67715 23013 ft 246 kts 162°
2026-05-04 12:43 49.03014 6.68750 23013 ft 246 kts 162°
2026-05-04 12:43 49.01442 6.69785 23017 ft 246 kts 162°
2026-05-04 12:43 48.99875 6.70817 23018 ft 246 kts 162°
2026-05-04 12:43 48.98399 6.72150 23028 ft 253 kts 143°
2026-05-04 12:44 48.97221 6.74178 23030 ft 257 kts 136°
2026-05-04 12:44 48.96083 6.76304 23032 ft 259 kts 135°
2026-05-04 12:44 48.94937 6.78425 23031 ft 260 kts 136°
2026-05-04 12:44 48.93779 6.80533 23030 ft 259 kts 136°
2026-05-04 12:45 48.92637 6.82608 23027 ft 259 kts 136°
2026-05-04 12:45 48.91483 6.84712 23027 ft 259 kts 136°
2026-05-04 12:45 48.90326 6.86821 23031 ft 260 kts 136°
2026-05-04 12:45 48.89164 6.88935 23028 ft 261 kts 136°
2026-05-04 12:46 48.88004 6.91046 23026 ft 260 kts 136°
2026-05-04 12:46 48.86847 6.93148 23027 ft 259 kts 136°
2026-05-04 12:46 48.85686 6.95256 23027 ft 259 kts 136°
2026-05-04 12:46 48.84530 6.97353 23027 ft 259 kts 136°
2026-05-04 12:47 48.83372 6.99452 23027 ft 259 kts 136°
2026-05-04 12:47 48.82212 7.01547 23019 ft 258 kts 136°
2026-05-04 12:47 48.81069 7.03607 23018 ft 258 kts 136°
2026-05-04 12:47 48.79912 7.05691 23019 ft 258 kts 136°
2026-05-04 12:48 48.78752 7.07781 23019 ft 258 kts 136°
2026-05-04 12:48 48.77594 7.09866 23020 ft 259 kts 136°
2026-05-04 12:48 48.76426 7.11937 23018 ft 258 kts 137°
2026-05-04 12:48 48.75249 7.13997 23019 ft 258 kts 137°
2026-05-04 12:49 48.74074 7.16061 23018 ft 259 kts 137°
2026-05-04 12:49 48.72900 7.18132 23017 ft 259 kts 137°
2026-05-04 12:49 48.71724 7.20204 23018 ft 259 kts 137°
2026-05-04 12:49 48.70548 7.22272 23019 ft 259 kts 137°
2026-05-04 12:50 48.69368 7.24344 23019 ft 259 kts 137°
2026-05-04 12:50 48.68190 7.26411 23021 ft 259 kts 137°
2026-05-04 12:50 48.67012 7.28477 23020 ft 259 kts 137°
2026-05-04 12:50 48.65830 7.30549 23020 ft 259 kts 137°
2026-05-04 12:51 48.64650 7.32615 23011 ft 259 kts 137°
2026-05-04 12:51 48.63487 7.34652 23011 ft 259 kts 137°
2026-05-04 12:51 48.62308 7.36713 23011 ft 259 kts 137°
2026-05-04 12:51 48.61127 7.38775 23011 ft 259 kts 137°
2026-05-04 12:52 48.59952 7.40827 23009 ft 258 kts 137°
2026-05-04 12:52 48.58776 7.42877 23008 ft 258 kts 137°
2026-05-04 12:52 48.57597 7.44932 23009 ft 258 kts 137°
2026-05-04 12:52 48.56418 7.46985 23000 ft 258 kts 137°
2026-05-04 12:53 48.55237 7.49042 23000 ft 258 kts 137°
2026-05-04 12:53 48.54050 7.51102 22790 ft 265 kts 137°
2026-05-04 12:53 48.52809 7.53248 22392 ft 277 kts 137°
2026-05-04 12:53 48.51545 7.55443 22008 ft 285 kts 136°
2026-05-04 12:54 48.50277 7.57777 21622 ft 292 kts 129°
2026-05-04 12:54 48.49171 7.60334 21236 ft 288 kts 128°
2026-05-04 12:54 48.48099 7.62840 20840 ft 281 kts 128°
2026-05-04 12:54 48.47035 7.65286 20474 ft 277 kts 129°
2026-05-04 12:55 48.45979 7.67697 20102 ft 275 kts 129°
2026-05-04 12:55 48.44933 7.70094 19736 ft 273 kts 129°
2026-05-04 12:55 48.43895 7.72478 19375 ft 272 kts 129°
2026-05-04 12:55 48.42817 7.74788 19016 ft 268 kts 131°
2026-05-04 12:56 48.41754 7.77103 18671 ft 269 kts 129°
2026-05-04 12:56 48.40709 7.79426 18301 ft 267 kts 130°
2026-05-04 12:56 48.39650 7.81719 17905 ft 265 kts 131°
2026-05-04 12:56 48.38589 7.83986 17507 ft 265 kts 130°
2026-05-04 12:57 48.37546 7.86227 17115 ft 264 kts 130°
2026-05-04 12:57 48.36500 7.88497 16725 ft 264 kts 128°
2026-05-04 12:57 48.35523 7.90821 16342 ft 262 kts 128°
2026-05-04 12:57 48.34499 7.93089 15966 ft 262 kts 129°
2026-05-04 12:58 48.33475 7.95369 15585 ft 263 kts 128°
2026-05-04 12:58 48.32470 7.97667 15219 ft 264 kts 128°
2026-05-04 12:58 48.31468 7.99964 14859 ft 263 kts 128°
2026-05-04 12:58 48.30462 8.02255 14495 ft 262 kts 128°
2026-05-04 12:59 48.29455 8.04539 14142 ft 262 kts 128°
2026-05-04 12:59 48.28449 8.06820 13784 ft 262 kts 128°
2026-05-04 12:59 48.27439 8.09112 13390 ft 263 kts 128°
2026-05-04 12:59 48.26426 8.11407 12998 ft 266 kts 128°
2026-05-04 13:00 48.25399 8.13733 12602 ft 269 kts 128°
2026-05-04 13:00 48.24363 8.16077 12219 ft 270 kts 128°
2026-05-04 13:00 48.23316 8.18380 11840 ft 270 kts 129°
2026-05-04 13:00 48.22246 8.20690 11462 ft 269 kts 129°
2026-05-04 13:01 48.21187 8.22993 11092 ft 268 kts 129°
2026-05-04 13:01 48.20131 8.25303 10714 ft 268 kts 128°
2026-05-04 13:01 48.19075 8.27608 10352 ft 268 kts 128°
2026-05-04 13:01 48.18019 8.29907 9986 ft 267 kts 128°
2026-05-04 13:02 48.17015 8.32239 9601 ft 267 kts 120°
2026-05-04 13:02 48.16385 8.34857 9213 ft 267 kts 111°
2026-05-04 13:02 48.15824 8.37510 8823 ft 266 kts 111°
2026-05-04 13:02 48.15254 8.40142 8437 ft 265 kts 111°
2026-05-04 13:03 48.14678 8.42747 8058 ft 262 kts 111°
2026-05-04 13:03 48.14107 8.45334 7691 ft 261 kts 110°
2026-05-04 13:03 48.13545 8.47888 7308 ft 256 kts 110°
2026-05-04 13:03 48.12993 8.50397 6945 ft 252 kts 110°
2026-05-04 13:04 48.12454 8.52841 6581 ft 248 kts 110°
2026-05-04 13:04 48.11917 8.55270 6201 ft 244 kts 109°
2026-05-04 13:04 48.11387 8.57665 5995 ft 236 kts 109°
2026-05-04 13:04 48.10884 8.59941 5987 ft 225 kts 108°
2026-05-04 13:05 48.10401 8.62122 5979 ft 218 kts 109°
2026-05-04 13:05 48.09923 8.64282 5980 ft 221 kts 109°
2026-05-04 13:05 48.09431 8.66500 5982 ft 228 kts 109°
2026-05-04 13:05 48.08924 8.68779 5983 ft 233 kts 109°
2026-05-04 13:06 48.08405 8.71103 5986 ft 237 kts 109°
2026-05-04 13:06 48.07885 8.73443 5985 ft 239 kts 109°
2026-05-04 13:06 48.07357 8.75811 5983 ft 241 kts 109°
2026-05-04 13:06 48.06824 8.78193 5982 ft 240 kts 109°
2026-05-04 13:07 48.06292 8.80567 5978 ft 241 kts 109°
2026-05-04 13:07 48.05758 8.82913 5976 ft 240 kts 111°
2026-05-04 13:07 48.04865 8.85004 5969 ft 240 kts 129°
2026-05-04 13:07 48.03880 8.86750 5970 ft 240 kts 130°
2026-05-04 13:08 48.02795 8.88653 5969 ft 242 kts 130°
2026-05-04 13:08 48.01714 8.90579 5967 ft 242 kts 130°
2026-05-04 13:08 48.00636 8.92511 5965 ft 242 kts 129°
2026-05-04 13:08 47.99560 8.94434 5966 ft 241 kts 132°
2026-05-04 13:09 47.98559 8.96445 5964 ft 241 kts 127°
2026-05-04 13:09 47.97548 8.98449 5967 ft 242 kts 128°
2026-05-04 13:09 47.96528 9.00446 5965 ft 242 kts 128°
2026-05-04 13:09 47.95519 9.02462 5972 ft 244 kts 128°
2026-05-04 13:10 47.94504 9.04499 5971 ft 246 kts 128°
2026-05-04 13:10 47.93473 9.06555 5972 ft 249 kts 128°
2026-05-04 13:10 47.92439 9.08626 5966 ft 248 kts 128°
2026-05-04 13:10 47.91414 9.10677 5964 ft 246 kts 128°
2026-05-04 13:11 47.90408 9.12682 5967 ft 244 kts 128°
2026-05-04 13:11 47.89393 9.14702 5966 ft 243 kts 128°
2026-05-04 13:11 47.88380 9.16720 5969 ft 243 kts 128°
2026-05-04 13:11 47.87366 9.18737 5969 ft 244 kts 128°
2026-05-04 13:12 47.86344 9.20768 5969 ft 245 kts 128°
2026-05-04 13:12 47.85309 9.22824 5715 ft 246 kts 128°
2026-05-04 13:12 47.84210 9.24726 5458 ft 239 kts 134°
2026-05-04 13:12 47.83234 9.26628 5294 ft 232 kts 114°
2026-05-04 13:13 47.82984 9.29014 4969 ft 237 kts 84°
2026-05-04 13:13 47.83407 9.31366 4629 ft 237 kts 71°
2026-05-04 13:13 47.83929 9.33652 4606 ft 227 kts 72°
2026-05-04 13:13 47.84353 9.35844 4591 ft 219 kts 78°
2026-05-04 13:14 47.84605 9.38010 4688 ft 207 kts 84°
2026-05-04 13:14 47.84724 9.40041 4709 ft 202 kts 86°
2026-05-04 13:14 47.84834 9.42150 4468 ft 208 kts 86°
2026-05-04 13:14 47.84933 9.44295 4359 ft 206 kts 87°
2026-05-04 13:15 47.85029 9.46427 4203 ft 206 kts 86°
2026-05-04 13:15 47.85115 9.48559 4062 ft 208 kts 87°
2026-05-04 13:15 47.85194 9.50738 4040 ft 211 kts 87°
2026-05-04 13:15 47.85258 9.52917 4062 ft 211 kts 89°
2026-05-04 13:16 47.85249 9.55101 4124 ft 210 kts 92°
2026-05-04 13:16 47.85165 9.57255 4192 ft 209 kts 95°
2026-05-04 13:16 47.85056 9.59487 3974 ft 220 kts 94°
2026-05-04 13:16 47.84949 9.61747 3972 ft 217 kts 94°
2026-05-04 13:17 47.84847 9.63970 3968 ft 213 kts 94°
2026-05-04 13:17 47.84782 9.65423 3966 ft 211 kts 94°
2026-05-04 13:17 47.84658 9.68318 3967 ft 208 kts 94°
2026-05-04 13:17 47.84569 9.70456 3968 ft 205 kts 94°
2026-05-04 13:18 47.84418 9.71786 4141 ft 185 kts 105°
2026-05-04 13:18 47.83687 9.73788 4233 ft 155 kts 133°
2026-05-04 13:18 47.82878 9.74784 4103 ft 149 kts 146°
2026-05-04 13:18 47.81993 9.75573 3981 ft 147 kts 149°
2026-05-04 13:19 47.81388 9.76085 3950 ft 149 kts 150°
2026-05-04 13:19 47.80468 9.76846 3916 ft 152 kts 151°
2026-05-04 13:19 47.79562 9.77606 3972 ft 150 kts 150°
2026-05-04 13:19 47.78614 9.78267 3939 ft 154 kts 161°
2026-05-04 13:20 47.77577 9.78637 3944 ft 150 kts 189°
2026-05-04 13:20 47.76754 9.77752 3844 ft 155 kts 241°
2026-05-04 13:20 47.76389 9.76274 3858 ft 155 kts 252°
2026-05-04 13:20 47.75987 9.74777 3907 ft 157 kts 242°
2026-05-04 13:21 47.75435 9.73370 3950 ft 158 kts 241°
2026-05-04 13:21 47.74916 9.71979 3973 ft 152 kts 243°
2026-05-04 13:21 47.74458 9.70555 3884 ft 154 kts 246°
2026-05-04 13:21 47.74025 9.69101 3795 ft 153 kts 244°
2026-05-04 13:22 47.73530 9.67711 3654 ft 152 kts 240°
2026-05-04 13:22 47.73021 9.66364 3502 ft 148 kts 241°
2026-05-04 13:22 47.72537 9.65103 3443 ft 133 kts 241°
2026-05-04 13:22 47.72101 9.63977 3276 ft 122 kts 241°
2026-05-04 13:23 47.71690 9.62935 3112 ft 106 kts 241°
2026-05-04 13:23 47.71340 9.62046 2923 ft 97 kts 240°
2026-05-04 13:23 47.70991 9.61182 2722 ft 97 kts 241°
2026-05-04 13:23 47.70657 9.60315 2564 ft 96 kts 241°
2026-05-04 13:24 47.70353 9.59539 2487 ft 93 kts 242°
2026-05-04 13:24 47.70037 9.58681 2413 ft 93 kts 242°
2026-05-04 13:24 47.69722 9.57850 2320 ft 93 kts 241°
2026-05-04 13:25 47.69086 9.56196 2066 ft 92 kts 239°
2026-05-04 13:25 47.68766 9.55385 1913 ft 90 kts 239°
2026-05-04 13:25 47.68454 9.54586 1753 ft 88 kts 239°
2026-05-04 13:25 47.68148 9.53799 1632 ft 88 kts 238°
2026-05-04 13:26 47.67849 9.53018 1516 ft 87 kts 238°
2026-05-04 13:26 47.67557 9.52254 1396 ft 83 kts 239°
2026-05-04 13:26 47.67306 9.51598 1357 ft 57 kts 238°
2026-05-04 13:26 47.67209 9.51351 1359 ft 23 kts 242°
2026-05-04 13:27 47.67146 9.51231 1357 ft 10 kts 172°
2026-05-04 13:27 47.67076 9.51301 1354 ft 11 kts 142°
2026-05-04 13:27 47.67072 9.51304 1354 ft 0 kts 142°
2026-05-04 13:28 47.67038 9.51345 1355 ft 12 kts 141°
2026-05-04 13:28 47.66965 9.51404 1357 ft 11 kts 211°
2026-05-04 13:28 47.66936 9.51357 1357 ft 0 kts 231°
2026-05-04 13:28 47.66935 9.51356 1357 ft 2 kts 231°
2026-05-04 13:29 47.66900 9.51291 1356 ft 12 kts 231°
2026-05-04 13:29 47.66855 9.51225 1355 ft 7 kts 166°
2026-05-04 13:29 47.66854 9.51267 1355 ft 5 kts 59°
2026-05-04 13:29 47.66857 9.51271 1355 ft 0 kts 38°
2026-05-04 13:30 47.66864 9.51273 1355 ft 0 kts 329°